| time (UTC) | temp F | wind direction | speed knots | gust knots | rain 1hr in | rain 24hr in | rain mn in | humidity % | barometer mb |
| 20260510183023 | 65 | 266 | 1.7 | 4.3 | 0.00 | 0.00 | 0.00 | 14 | 1015.7 |
| 20260510181529 | 63 | 216 | 0.0 | 3.5 | 0.00 | 0.00 | 0.00 | 15 | 1015.9 |
| 20260510180016 | 63 | 167 | 0.0 | 5.2 | 0.00 | 0.00 | 0.00 | 11 | 1016.1 |
| 20260510174514 | 62 | 248 | 0.0 | 3.5 | 0.00 | 0.00 | 0.00 | 12 | 1016.0 |
| 20260510173013 | 62 | 231 | 0.0 | 2.6 | 0.00 | 0.00 | 0.00 | 11 | 1016.0 |
| 20260510171511 | 62 | 248 | 0.0 | 3.5 | 0.00 | 0.00 | 0.00 | 13 | 1016.0 |
| 20260510170008 | 61 | 223 | 0.0 | 4.3 | 0.00 | 0.00 | 0.00 | 16 | 1015.9 |
| 20260510164513 | 60 | 255 | 0.0 | 3.5 | 0.00 | 0.00 | 0.00 | 15 | 1015.8 |
| 20260510163006 | 59 | 218 | 0.0 | 4.3 | 0.00 | 0.00 | 0.00 | 15 | 1015.8 |
| 20260510161601 | 58 | 212 | 0.0 | 2.6 | 0.00 | 0.00 | 0.00 | 15 | 1015.8 |
| 20260510160057 | 57 | 264 | 0.0 | 2.6 | 0.00 | 0.00 | 0.00 | 19 | 1015.7 |
| 20260510154558 | 56 | 8 | 0.9 | 1.7 | 0.00 | 0.00 | 0.00 | 19 | 1015.8 |
| 20260510153049 | 53 | 95 | 0.0 | 0.9 | 0.00 | 0.00 | 0.00 | 26 | 1015.9 |
| 20260510151554 | 48 | 224 | 0.0 | 1.7 | 0.00 | 0.00 | 0.00 | 34 | 1016.1 |
| 20260510150044 | 43 | 71 | 0.0 | 0.0 | 0.00 | 0.00 | 0.00 | 38 | 1016.3 |
| 20260510144549 | 39 | 71 | 0.0 | 0.0 | 0.00 | 0.00 | 0.00 | 43 | 1016.4 |
| 20260510143039 | 36 | 37 | 0.0 | 0.0 | 0.00 | 0.00 | 0.00 | 47 | 1016.4 |
| 20260510141531 | 34 | 37 | 0.0 | 0.0 | 0.00 | 0.00 | 0.00 | 50 | 1016.5 |
| 20260510140030 | 33 | 37 | 0.0 | 0.0 | 0.00 | 0.00 | 0.00 | 53 | 1016.7 |
| 20260510134529 | 31 | 37 | 0.0 | 0.0 | 0.00 | 0.00 | 0.00 | 55 | 1016.6 |
| 20260510133029 | 30 | 37 | 0.0 | 0.0 | 0.00 | 0.00 | 0.00 | 60 | 1016.5 |
| 20260510131540 | 30 | 37 | 0.0 | 0.0 | 0.00 | 0.00 | 0.00 | 56 | 1016.4 |
| 20260510130026 | 30 | 37 | 0.0 | 0.0 | 0.00 | 0.00 | 0.00 | 56 | 1016.1 |
| 20260510124524 | 30 | 37 | 0.0 | 0.9 | 0.00 | 0.00 | 0.00 | 55 | 1016.1 |
| 20260510123023 | 29 | 266 | 0.0 | 0.9 | 0.00 | 0.00 | 0.00 | 55 | 1015.9 |
| 20260510121522 | 29 | 266 | 0.0 | 0.0 | 0.00 | 0.00 | 0.00 | 57 | 1015.8 |
| 20260510120020 | 29 | 266 | 0.0 | 0.9 | 0.00 | 0.00 | 0.00 | 56 | 1015.6 |
| 20260510114520 | 29 | 266 | 0.0 | 0.0 | 0.00 | 0.00 | 0.00 | 57 | 1015.5 |
| 20260510113021 | 29 | 266 | 0.0 | 0.0 | 0.00 | 0.00 | 0.00 | 58 | 1015.5 |
| 20260510111517 | 29 | 266 | 0.0 | 0.0 | 0.00 | 0.00 | 0.00 | 58 | 1015.2 |
| 20260510110016 | 30 | 266 | 0.0 | 0.0 | 0.00 | 0.00 | 0.00 | 57 | 1014.9 |
| 20260510104512 | 30 | 266 | 0.0 | 0.0 | 0.00 | 0.00 | 0.00 | 54 | 1014.9 |
| 20260510103010 | 30 | 266 | 0.0 | 0.9 | 0.00 | 0.00 | 0.00 | 55 | 1014.9 |
| 20260510101509 | 30 | 54 | 0.0 | 0.0 | 0.00 | 0.00 | 0.00 | 54 | 1014.8 |
| 20260510100006 | 30 | 54 | 0.0 | 0.9 | 0.00 | 0.00 | 0.00 | 55 | 1014.7 |
| 20260510094507 | 31 | 54 | 0.0 | 0.0 | 0.00 | 0.00 | 0.00 | 54 | 1014.5 |
| 20260510093004 | 31 | 54 | 0.0 | 0.9 | 0.00 | 0.00 | 0.00 | 57 | 1014.4 |
| 20260510091502 | 31 | 54 | 0.0 | 0.0 | 0.00 | 0.00 | 0.00 | 55 | 1014.4 |
| 20260510084600 | 32 | 54 | 0.0 | 0.0 | 0.00 | 0.00 | 0.00 | 55 | 1014.1 |
| 20260510083059 | 32 | 54 | 0.0 | 0.9 | 0.00 | 0.00 | 0.00 | 56 | 1014.1 |
| 20260510081555 | 32 | 82 | 0.0 | 1.7 | 0.00 | 0.00 | 0.00 | 55 | 1014.0 |
| 20260510074553 | 33 | 139 | 0.0 | 0.0 | 0.00 | 0.00 | 0.00 | 56 | 1013.8 |
| 20260510073110 | 33 | 70 | 0.0 | 0.9 | 0.00 | 0.00 | 0.00 | 55 | 1013.8 |
| 20260510071546 | 34 | 244 | 0.0 | 0.0 | 0.00 | 0.00 | 0.00 | 53 | 1013.7 |
| 20260510070046 | 34 | 242 | 0.0 | 0.0 | 0.00 | 0.00 | 0.00 | 53 | 1013.5 |
| 20260510064559 | 34 | 131 | 0.0 | 0.0 | 0.00 | 0.00 | 0.00 | 55 | 1013.4 |
| 20260510063041 | 35 | 248 | 0.0 | 0.0 | 0.00 | 0.00 | 0.00 | 55 | 1013.3 |
| 20260510061538 | 35 | 248 | 0.0 | 0.0 | 0.00 | 0.00 | 0.00 | 53 | 1013.3 |
| 20260510060136 | 36 | 248 | 0.0 | 0.0 | 0.00 | 0.00 | 0.00 | 55 | 1013.2 |
| 20260510054541 | 37 | 248 | 0.0 | 0.0 | 0.00 | 0.00 | 0.00 | 54 | 1013.0 |
| 20260510053042 | 38 | 276 | 0.0 | 0.9 | 0.00 | 0.00 | 0.00 | 53 | 1012.9 |
| 20260510051546 | 38 | 260 | 0.0 | 0.0 | 0.00 | 0.00 | 0.00 | 52 | 1012.8 |
| 20260510050031 | 39 | 321 | 0.0 | 1.7 | 0.00 | 0.00 | 0.00 | 51 | 1012.7 |
| 20260510044531 | 39 | 63 | 0.0 | 1.7 | 0.00 | 0.00 | 0.00 | 52 | 1012.8 |
| 20260510043030 | 40 | 241 | 0.0 | 0.0 | 0.00 | 0.00 | 0.00 | 51 | 1012.6 |
| 20260510041531 | 41 | 241 | 0.0 | 0.9 | 0.00 | 0.00 | 0.00 | 53 | 1012.3 |
| 20260510040029 | 41 | 242 | 0.0 | 0.0 | 0.00 | 0.00 | 0.00 | 49 | 1011.9 |
| 20260510034528 | 42 | 242 | 0.0 | 0.0 | 0.00 | 0.00 | 0.00 | 50 | 1011.7 |
| 20260510033027 | 44 | 269 | 0.0 | 0.0 | 0.00 | 0.00 | 0.00 | 50 | 1011.3 |
| 20260510031531 | 45 | 250 | 0.0 | 0.9 | 0.00 | 0.00 | 0.00 | 47 | 1011.1 |
| 20260510030027 | 46 | 248 | 0.0 | 0.0 | 0.00 | 0.00 | 0.00 | 46 | 1010.8 |
| 20260510024526 | 48 | 238 | 0.0 | 0.9 | 0.00 | 0.00 | 0.00 | 44 | 1010.6 |
| 20260510023026 | 50 | 106 | 0.0 | 0.0 | 0.00 | 0.00 | 0.00 | 41 | 1010.3 |
| 20260510021530 | 51 | 41 | 0.0 | 0.0 | 0.00 | 0.00 | 0.00 | 39 | 1010.2 |
| 20260510020030 | 52 | 41 | 0.0 | 0.9 | 0.00 | 0.00 | 0.00 | 39 | 1009.9 |
| 20260510014524 | 53 | 195 | 0.0 | 0.0 | 0.00 | 0.00 | 0.00 | 37 | 1009.6 |
| 20260510013024 | 54 | 195 | 0.0 | 0.0 | 0.00 | 0.00 | 0.00 | 36 | 1009.5 |
| 20260510011524 | 54 | 195 | 0.0 | 0.0 | 0.00 | 0.00 | 0.00 | 37 | 1009.4 |
| 20260510010022 | 55 | 257 | 0.0 | 1.7 | 0.00 | 0.00 | 0.00 | 34 | 1009.4 |
| 20260510004522 | 55 | 214 | 0.0 | 0.9 | 0.00 | 0.00 | 0.00 | 32 | 1009.4 |
| 20260510003022 | 56 | 158 | 0.0 | 0.0 | 0.00 | 0.00 | 0.00 | 33 | 1009.3 |
| 20260510001521 | 56 | 72 | 0.0 | 3.5 | 0.00 | 0.00 | 0.00 | 32 | 1009.2 |
| 20260510000022 | 55 | 143 | 0.0 | 0.0 | 0.00 | 0.00 | 0.00 | 34 | 1009.5 |
| 20260509234520 | 55 | 146 | 0.0 | 4.3 | 0.00 | 0.00 | 0.00 | 34 | 1009.4 |
| 20260509233021 | 56 | 250 | 0.9 | 3.5 | 0.00 | 0.00 | 0.00 | 35 | 1009.8 |
| 20260509231519 | 55 | 72 | 0.9 | 4.3 | 0.00 | 0.00 | 0.00 | 35 | 1009.3 |
| 20260509230019 | 55 | 53 | 0.0 | 3.5 | 0.00 | 0.00 | 0.00 | 36 | 1009.5 |
| 20260509224518 | 55 | 276 | 0.9 | 5.2 | 0.00 | 0.00 | 0.00 | 36 | 1009.7 |
| 20260509223019 | 56 | 238 | 3.5 | 9.6 | 0.00 | 0.00 | 0.00 | 31 | 1009.9 |
| 20260509221517 | 58 | 279 | 0.0 | 5.2 | 0.00 | 0.00 | 0.00 | 26 | 1009.0 |
| 20260509220016 | 59 | 135 | 0.0 | 2.6 | 0.00 | 0.00 | 0.00 | 27 | 1009.1 |
| 20260509214516 | 59 | 289 | 0.0 | 4.3 | 0.00 | 0.00 | 0.00 | 29 | 1009.3 |
| 20260509213018 | 60 | 158 | 1.7 | 7.8 | 0.00 | 0.00 | 0.00 | 26 | 1009.4 |
| 20260509211518 | 60 | 171 | 1.7 | 6.1 | 0.00 | 0.00 | 0.00 | 25 | 1009.1 |
| 20260509210014 | 61 | 160 | 1.7 | 6.1 | 0.00 | 0.00 | 0.00 | 24 | 1009.4 |
| 20260509204514 | 61 | 53 | 1.7 | 6.1 | 0.00 | 0.00 | 0.00 | 25 | 1009.4 |
| 20260509203023 | 60 | 243 | 1.7 | 6.1 | 0.00 | 0.00 | 0.00 | 27 | 1009.4 |
| 20260509201512 | 60 | 195 | 0.9 | 7.8 | 0.00 | 0.00 | 0.00 | 30 | 1009.8 |
| 20260509200009 | 62 | 226 | 0.9 | 5.2 | 0.00 | 0.00 | 0.00 | 27 | 1009.8 |
| 20260509194508 | 62 | 159 | 0.0 | 7.0 | 0.00 | 0.00 | 0.00 | 25 | 1009.7 |
| 20260509193008 | 60 | 174 | 0.0 | 5.2 | 0.00 | 0.00 | 0.00 | 26 | 1010.0 |
| 20260509191510 | 62 | 243 | 0.0 | 5.2 | 0.00 | 0.00 | 0.00 | 25 | 1010.0 |
| 20260509190104 | 60 | 79 | 1.7 | 8.7 | 0.00 | 0.00 | 0.00 | 26 | 1010.3 |
| 20260509184504 | 62 | 213 | 1.7 | 5.2 | 0.00 | 0.00 | 0.00 | 27 | 1010.0 |